This is the latest recevied weather packets stored in our database for station/object XE2KK-10. If no packets are shown the sender has not sent any weather packets the latest 10 day(s).
| Time | Temp. | Humidity | Pressure | Rain* | Wind** | Luminosity | Snow |
|---|---|---|---|---|---|---|---|
| 1778113153 | 32.22° C | 48% | 1007.7 hPa | 0 mm | - | 33 W/m² | - |
| 1778112853 | 32.78° C | 48% | 1007.4 hPa | 0 mm | - | 32 W/m² | - |
| 1778112553 | 32.78° C | 47% | 1007.2 hPa | 0 mm | - | 36 W/m² | - |
| 1778112252 | 33.33° C | 47% | 1007.2 hPa | 0 mm | - | 38 W/m² | - |
| 1778111952 | 33.33° C | 46% | 1007.1 hPa | 0 mm | - | 49 W/m² | - |
| 1778111653 | 33.89° C | 46% | 1007.1 hPa | 0 mm | - | 81 W/m² | - |
| 1778111353 | 33.89° C | 45% | 1007 hPa | 0 mm | - | 161 W/m² | - |
| 1778111052 | 34.44° C | 43% | 1006.7 hPa | 0 mm | - | 73 W/m² | - |
| 1778110752 | 35° C | 41% | 1006.6 hPa | 0 mm | - | 72 W/m² | - |
| 1778110452 | 35.56° C | 38% | 1006.7 hPa | 0 mm | - | 241 W/m² | - |
| 1778110152 | 36.11° C | 36% | 1006.5 hPa | 0 mm | - | 173 W/m² | - |
| 1778109853 | 36.67° C | 32% | 1006.3 hPa | 0 mm | - | 130 W/m² | - |
| 1778109552 | 37.78° C | 28% | 1006.4 hPa | 0 mm | - | 229 W/m² | - |
| 1778109252 | 37.78° C | 25% | 1006.7 hPa | 0 mm | - | 321 W/m² | - |
| 1778108953 | 37.22° C | 25% | 1006.3 hPa | 0 mm | - | 285 W/m² | - |
| 1778108652 | 37.22° C | 25% | 1006.4 hPa | 0 mm | - | 344 W/m² | - |
| 1778108352 | 37.22° C | 26% | 1006.3 hPa | 0 mm | - | 193 W/m² | - |
| 1778108053 | 37.78° C | 24% | 1006.4 hPa | 0 mm | - | 297 W/m² | - |
| 1778107753 | 37.22° C | 24% | 1006.2 hPa | 0 mm | - | 344 W/m² | - |
| 1778107453 | 37.22° C | 23% | 1006.2 hPa | 0 mm | - | 95 W/m² | - |
| 1778107153 | 37.22° C | 22% | 1006.4 hPa | 0 mm | - | 179 W/m² | - |
| 1778106852 | 37.22° C | 21% | 1006 hPa | 0 mm | - | 148 W/m² | - |
| 1778106552 | 37.22° C | 22% | 1006.1 hPa | 0 mm | - | 169 W/m² | - |
| 1778106253 | 37.22° C | 22% | 1006 hPa | 0 mm | - | 104 W/m² | - |
| 1778105953 | 37.22° C | 22% | 1006.1 hPa | 0 mm | - | 124 W/m² | - |
* Rain latest hour (hover to see other rain measurements)
** Current wind speed in m/s (hover to see current wind gust speed)